Total_Precipitation_Accumulation
0.01 0.01 0.02 0.02 0.03 0.03 0.04 0.05 0.07 0.08 0.09 0.09 0.09 0.10 0.11 0.13 0.15 0.19 0.22 0.25 0.26 0.26 0.27 0.28 0.29 0.28 0.27 0.25 0.23 0.21 0.20 0.24 0.21 0.08 0.06 0.12 0.22 0.26 0.27 0.25 0.24 0.21 0.16
0.03 0.03 0.04 0.04 0.06 0.09 0.11 0.12 0.13 0.14 0.14 0.14 0.13 0.13 0.12 0.13 0.14 0.16 0.19 0.22 0.26 0.29 0.31 0.33 0.33 0.33 0.33 0.32 0.31 0.28 0.25 0.24 0.25 0.16 0.08 0.10 0.17 0.25 0.31 0.31 0.25 0.21 0.17
0.04 0.05 0.06 0.09 0.12 0.16 0.19 0.20 0.20 0.20 0.19 0.19 0.19 0.19 0.20 0.21 0.23 0.22 0.22 0.23 0.25 0.27 0.28 0.31 0.34 0.38 0.39 0.37 0.37 0.36 0.32 0.27 0.24 0.20 0.13 0.11 0.15 0.22 0.28 0.32 0.31 0.27 0.22
0.09 0.11 0.14 0.18 0.22 0.25 0.26 0.25 0.23 0.23 0.24 0.24 0.24 0.25 0.29 0.35 0.40 0.40 0.36 0.34 0.31 0.30 0.29 0.30 0.33 0.37 0.41 0.45 0.49 0.45 0.38 0.34 0.30 0.25 0.19 0.16 0.16 0.21 0.29 0.33 0.36 0.35 0.33
0.20 0.23 0.23 0.22 0.22 0.22 0.22 0.22 0.23 0.25 0.26 0.26 0.24 0.25 0.31 0.42 0.59 0.62 0.56 0.45 0.37 0.35 0.33 0.33 0.35 0.42 0.51 0.60 0.62 0.56 0.47 0.40 0.35 0.32 0.27 0.23 0.21 0.25 0.31 0.35 0.38 0.37 0.38
0.27 0.27 0.25 0.22 0.21 0.21 0.22 0.22 0.23 0.23 0.21 0.18 0.17 0.21 0.29 0.43 0.71 0.75 0.62 0.43 0.37 0.36 0.36 0.33 0.32 0.35 0.40 0.47 0.57 0.54 0.51 0.47 0.43 0.40 0.39 0.37 0.32 0.30 0.34 0.42 0.48 0.45 0.42
0.28 0.28 0.26 0.24 0.23 0.21 0.20 0.18 0.17 0.16 0.13 0.10 0.09 0.11 0.17 0.32 0.61 0.67 0.54 0.35 0.28 0.30 0.29 0.24 0.23 0.24 0.25 0.23 0.28 0.27 0.29 0.38 0.47 0.50 0.54 0.55 0.48 0.41 0.42 0.49 0.55 0.54 0.45
0.25 0.23 0.19 0.16 0.15 0.14 0.13 0.12 0.10 0.09 0.08 0.06 0.04 0.04 0.06 0.13 0.41 0.60 0.44 0.21 0.20 0.22 0.21 0.22 0.23 0.22 0.21 0.17 0.16 0.18 0.20 0.27 0.40 0.50 0.60 0.63 0.61 0.56 0.52 0.57 0.67 0.71 0.63
0.15 0.12 0.09 0.07 0.07 0.08 0.08 0.07 0.05 0.04 0.03 0.02 0.02 0.01 0.02 0.05 0.24 0.54 0.47 0.15 0.14 0.15 0.19 0.28 0.30 0.25 0.21 0.11 0.10 0.16 0.18 0.22 0.28 0.39 0.49 0.51 0.52 0.59 0.62 0.63 0.69 0.78 0.87
0.07 0.05 0.03 0.02 0.03 0.03 0.03 0.02 0.01 0.01 0.01 0.01 0.00 0.01 0.01 0.02 0.14 0.45 0.58 0.18 0.10 0.11 0.16 0.28 0.44 0.35 0.22 0.08 0.06 0.10 0.14 0.17 0.18 0.18 0.22 0.26 0.30 0.37 0.49 0.66 0.75 0.76 0.86
0.02 0.01 0.00 0.00 0.00 0.01 0.01 0.01 0.01 0.01 0.01 0.01 0.01 0.01 0.01 0.01 0.05 0.27 0.57 0.36 0.14 0.09 0.16 0.28 0.44 0.33 0.16 0.08 0.05 0.07 0.11 0.10 0.11 0.12 0.14 0.17 0.21 0.29 0.41 0.56 0.69 0.74 0.77
0.00 0.00 0.00 0.00 0.00 0.00 0.00 0.00 0.01 0.01 0.01 0.01 0.01 0.01 0.01 0.01 0.03 0.15 0.32 0.37 0.25 0.09 0.16 0.22 0.29 0.21 0.12 0.06 0.03 0.04 0.03 0.02 0.04 0.05 0.07 0.10 0.15 0.24 0.35 0.47 0.58 0.65 0.73
0.00 0.00 0.00 0.00 0.00 0.00 0.00 0.01 0.01 0.01 0.03 0.05 0.04 0.03 0.02 0.01 0.04 0.11 0.13 0.13 0.15 0.10 0.21 0.33 0.23 0.11 0.06 0.03 0.01 0.00 0.00 0.00 0.01 0.02 0.04 0.06 0.10 0.16 0.22 0.31 0.41 0.50 0.56
0.00 0.00 0.00 0.00 0.00 0.00 0.00 0.01 0.01 0.03 0.11 0.16 0.12 0.08 0.04 0.03 0.10 0.17 0.13 0.06 0.07 0.07 0.09 0.18 0.15 0.05 0.01 0.00 0.00 0.00 0.00 0.00 0.01 0.02 0.03 0.03 0.04 0.07 0.12 0.20 0.30 0.39 0.47
0.00 0.00 0.00 0.00 0.00 0.00 0.00 0.01 0.02 0.04 0.17 0.28 0.22 0.18 0.14 0.15 0.26 0.34 0.26 0.18 0.18 0.14 0.09 0.07 0.05 0.02 0.01 0.00 0.00 0.00 0.00 0.00 0.00 0.01 0.02 0.02 0.04 0.05 0.09 0.15 0.24 0.32 0.42
0.00 0.00 0.01 0.01 0.01 0.01 0.01 0.01 0.01 0.03 0.08 0.10 0.13 0.19 0.17 0.25 0.31 0.25 0.18 0.16 0.17 0.14 0.07 0.05 0.04 0.03 0.01 0.01 0.00 0.00 0.00 0.00 0.00 0.01 0.02 0.02 0.04 0.06 0.08 0.11 0.19 0.27 0.36
0.01 0.01 0.02 0.01 0.01 0.01 0.02 0.02 0.02 0.01 0.02 0.02 0.04 0.09 0.15 0.21 0.21 0.17 0.16 0.11 0.08 0.06 0.03 0.02 0.02 0.01 0.01 0.00 0.00 0.00 0.00 0.00 0.00 0.01 0.02 0.02 0.04 0.06 0.08 0.10 0.15 0.23 0.32
0.01 0.01 0.02 0.02 0.02 0.03 0.03 0.04 0.04 0.04 0.02 0.01 0.01 0.03 0.07 0.11 0.13 0.12 0.11 0.06 0.03 0.02 0.02 0.01 0.01 0.00 0.00 0.00 0.00 0.00 0.00 0.00 0.00 0.01 0.01 0.02 0.03 0.06 0.08 0.10 0.14 0.22 0.31
0.00 0.01 0.03 0.03 0.03 0.03 0.04 0.04 0.03 0.03 0.03 0.02 0.01 0.01 0.02 0.03 0.03 0.03 0.04 0.03 0.02 0.02 0.01 0.01 0.00 0.00 0.00 0.00 0.00 0.00 0.00 0.00 0.00 0.01 0.01 0.01 0.02 0.05 0.07 0.08 0.12 0.20 0.30
0.00 0.02 0.03 0.03 0.03 0.03 0.03 0.04 0.04 0.04 0.04 0.03 0.03 0.04 0.07 0.06 0.03 0.02 0.02 0.02 0.02 0.02 0.02 0.01 0.01 0.01 0.00 0.00 0.00 0.00 0.00 0.00 0.00 0.01 0.01 0.02 0.02 0.05 0.07 0.09 0.12 0.18 0.25
0.01 0.01 0.02 0.02 0.02 0.03 0.04 0.05 0.05 0.05 0.05 0.04 0.03 0.05 0.19 0.18 0.08 0.04 0.03 0.04 0.05 0.05 0.04 0.03 0.02 0.01 0.01 0.00 0.00 0.00 0.00 0.00 0.01 0.01 0.02 0.02 0.03 0.05 0.07 0.10 0.12 0.16 0.20
0.02 0.03 0.03 0.03 0.03 0.03 0.05 0.05 0.04 0.05 0.05 0.04 0.03 0.02 0.06 0.05 0.04 0.04 0.05 0.05 0.06 0.06 0.06 0.05 0.03 0.02 0.02 0.01 0.01 0.01 0.00 0.00 0.01 0.01 0.02 0.03 0.04 0.07 0.09 0.11 0.14 0.18 0.21
0.05 0.04 0.03 0.02 0.02 0.02 0.02 0.02 0.03 0.04 0.05 0.04 0.04 0.04 0.04 0.04 0.06 0.07 0.07 0.07 0.08 0.09 0.08 0.07 0.06 0.04 0.03 0.02 0.01 0.01 0.01 0.02 0.03 0.04 0.06 0.06 0.07 0.09 0.11 0.13 0.16 0.19 0.22
0.04 0.02 0.01 0.01 0.02 0.02 0.02 0.03 0.04 0.05 0.06 0.06 0.06 0.06 0.06 0.06 0.06 0.07 0.07 0.08 0.10 0.10 0.10 0.11 0.09 0.06 0.04 0.03 0.02 0.01 0.01 0.04 0.09 0.11 0.11 0.12 0.12 0.12 0.13 0.16 0.18 0.20 0.23
0.01 0.01 0.01 0.02 0.03 0.04 0.04 0.04 0.05 0.06 0.07 0.07 0.08 0.08 0.07 0.07 0.07 0.07 0.08 0.10 0.12 0.12 0.11 0.12 0.11 0.09 0.06 0.05 0.03 0.02 0.04 0.09 0.14 0.21 0.26 0.27 0.23 0.18 0.19 0.20 0.21 0.22 0.25
0.01 0.01 0.02 0.03 0.04 0.06 0.08 0.08 0.08 0.09 0.11 0.11 0.11 0.11 0.11 0.10 0.10 0.11 0.13 0.16 0.19 0.17 0.14 0.13 0.12 0.11 0.08 0.05 0.04 0.04 0.09 0.19 0.29 0.40 0.47 0.48 0.38 0.27 0.23 0.24 0.23 0.24 0.26